This is the latest recevied weather packets stored in our database for station/object IZ1UQG-1. If no packets are shown the sender has not sent any weather packets the latest 10 day(s).
| Time | Temp. | Humidity | Pressure | Rain* | Wind** | Luminosity | Snow |
|---|---|---|---|---|---|---|---|
| 1777986235 | 15.56° C | 78% | 1013.2 hPa | 32.26 mm | - | - | - |
| 1777985935 | 15.56° C | 78% | 1013.2 hPa | 154.69 mm | - | - | - |
| 1777985635 | 15.56° C | 78% | 1013.2 hPa | 194.56 mm | - | - | - |
| 1777985335 | 15.56° C | 78% | 1013.1 hPa | 179.58 mm | - | - | - |
| 1777985035 | 15.56° C | 78% | 1013.2 hPa | 166.12 mm | - | - | - |
| 1777984735 | 15.56° C | 78% | 1013.2 hPa | 85.85 mm | - | - | - |
| 1777984435 | 15.56° C | 78% | 1013.2 hPa | 164.59 mm | - | - | - |
| 1777984135 | 15.56° C | 78% | 1013.2 hPa | 139.19 mm | - | - | - |
| 1777983835 | 15.56° C | 78% | 1013.2 hPa | 169.67 mm | - | - | - |
| 1777983535 | 15.56° C | 78% | 1013.2 hPa | 153.67 mm | - | - | - |
| 1777983235 | 15.56° C | 77% | 1013.1 hPa | 112.27 mm | - | - | - |
| 1777982935 | 15.56° C | 77% | 1013.1 hPa | 129.79 mm | - | - | - |
| 1777982635 | 15.56° C | 78% | 1013.1 hPa | 156.72 mm | - | - | - |
| 1777982335 | 15.56° C | 77% | 1013.3 hPa | 97.79 mm | - | - | - |
| 1777982035 | 15.56° C | 77% | 1013.4 hPa | 173.48 mm | - | - | - |
| 1777981735 | 15.56° C | 77% | 1013.3 hPa | 116.84 mm | - | - | - |
| 1777981435 | 15.56° C | 78% | 1013.3 hPa | 106.68 mm | - | - | - |
| 1777981135 | 15.56° C | 78% | 1013.4 hPa | 81.79 mm | - | - | - |
| 1777980835 | 16.11° C | 78% | 1013.4 hPa | 184.66 mm | - | - | - |
| 1777980535 | 16.11° C | 78% | 1013.6 hPa | 133.6 mm | - | - | - |
| 1777980235 | 15.56° C | 78% | 1013.6 hPa | 151.13 mm | - | - | - |
| 1777979935 | 15.56° C | 78% | 1013.4 hPa | 103.89 mm | - | - | - |
| 1777979635 | 15.56° C | 78% | 1013.6 hPa | 208.03 mm | - | - | - |
| 1777979335 | 15.56° C | 78% | 1013.7 hPa | 185.42 mm | - | - | - |
| 1777979035 | 15.56° C | 78% | 1013.7 hPa | 144.27 mm | - | - | - |
* Rain latest hour (hover to see other rain measurements)
** Current wind speed in m/s (hover to see current wind gust speed)